Flag for U.S.A. Weather past 2 weeks in Allentown, Pennsylvania, U.S.A.

Now
50 °F

Mostly cloudy.


Feels Like: 47 °F
Forecast: 45 / 66 °F
Wind: 7 mph from Northwest

Location: Lehigh Valley International Airport

Current Time: Apr 28, 2015 at 3:49:17 AM

Latest Report: Apr 28, 2015 at 2:51 AM


Visibility: 10 mi

Pressure: 29.79 "Hg

Humidity: 66%

Dew point: 39 °F

Location of AllentownLocation

Historic Weather in Allentown — Graph

°F

Allentown temperature yesterday

Maximum temperature yesterday: 57 °F (at 2:51 PM)
Minimum temperature yesterday: 41 °F (at 2:51 AM)
Average temperature yesterday: 50 °F

Past Weeks' High & Low Weather Summary

 TemperatureHumidityPressure
High80 °F (Apr 18, 3:51 PM)100% (Apr 18, 4:57 AM)30.46 "Hg (Apr 18, 4:57 AM)
Low30 °F (Apr 25, 5:51 AM)16% (Apr 15, 3:51 PM)29.52 "Hg (Apr 22, 1:51 PM)
Average54 °F53%29.94 "Hg
* Reported Apr 13 2:51 AM — Apr 28 2:51 AM, Allentown, Weather by CustomWeather, © 2015

Note: Actual official high and low records may vary slightly from our data, if they occured in-between our weather recording intervals... More about our weather records

Advertising

Allentown weather history for previous 24 hours

 ConditionsComfort  
Time TempWeatherWind HumidityBarometerVisibility
2:51 AM
Tue, Apr 28
50 °FMostly cloudy.7 mph66%29.79 "Hg10 mi
1:51 AM50 °FMostly cloudy.14 mph63%29.79 "Hg10 mi
12:51 AM49 °FMostly cloudy.7 mph64%29.80 "Hg10 mi
11:51 PM
Mon, Apr 27
50 °FMostly cloudy.7 mph59%29.80 "Hg10 mi
10:51 PM51 °FOvercast.10 mph52%29.80 "Hg10 mi
9:51 PM51 °FMostly cloudy.13 mph50%29.80 "Hg10 mi
8:51 PM51 °FMostly cloudy.16 mph48%29.80 "Hg10 mi
7:51 PM53 °FPartly sunny.15 mph47%29.77 "Hg10 mi
6:51 PM55 °FPartly sunny.12 mph44%29.75 "Hg10 mi
5:51 PM56 °FOvercast.18 mph40%29.72 "Hg10 mi
4:51 PM56 °FOvercast.17 mph40%29.71 "Hg10 mi
3:51 PM55 °FOvercast.16 mph45%29.72 "Hg10 mi
2:51 PM57 °FOvercast.12 mph39%29.72 "Hg10 mi
1:51 PM56 °FOvercast.15 mph44%29.73 "Hg10 mi
12:51 PM55 °FOvercast.14 mph45%29.73 "Hg10 mi
11:51 AM54 °FOvercast.10 mph51%29.74 "Hg10 mi
10:51 AM52 °FOvercast.9 mph55%29.75 "Hg10 mi
9:51 AM50 °FOvercast.9 mph57%29.74 "Hg10 mi
8:51 AM49 °FOvercast.7 mph57%29.74 "Hg10 mi
7:51 AM48 °FOvercast.7 mph56%29.72 "Hg10 mi
6:51 AM47 °FOvercast.7 mph59%29.72 "Hg10 mi
5:51 AM47 °FOvercast.6 mph56%29.70 "Hg10 mi
4:51 AM46 °FOvercast.6 mph56%29.70 "Hg10 mi
3:51 AM45 °FOvercast.5 mph58%29.71 "Hg10 mi
Weather by CustomWeather, © 2015

See weather overviewHow to use our weather pages